{"data":{"norad_id":35500,"epoch":"2026-05-25T04:20:14.144064Z","epoch_age_seconds":52738,"freshness":"FRESH","line1":"1 35500U 09036C   26145.18071926  .00000051  00000+0  30602-3 0  9992","line2":"2 35500  82.4865 102.1960 0005915 209.3465 150.7283 12.41519370765126","mean_motion":12.4151937,"eccentricity":0.0005915,"inclination_deg":82.4865,"raan_deg":102.196,"arg_perigee_deg":209.3465,"mean_anomaly_deg":150.7283,"bstar":0.00030602,"rev_number":76512,"period_min":115.98691367981,"perigee_km":1495.508915529,"apogee_km":1504.8289514483,"semimajor_km":7878.3059334887,"source":"CELESTRAK","updated_at":"2026-05-25T13:37:55.158550Z"}}